DNSO

Details ICAO DNSO (SKO)
Name SADIQ ABUBAKAR III INTL
Region Nigeria
Timezone Africa/Lagos (UTC+1.0)
Plans Departing 7
Arriving 20
Stats Elevation 1,010 ft / 308 m (AMSL)
Location 12.915896° 5.206894°
Runways 1
Magnetic Variation 0.602° W
Sunrise 2018-05-21 05:14:12 UTC / 2018-05-21 06:14:12 Local
Sunset 2018-05-21 18:00:10 UTC / 2018-05-21 19:00:10 Local
Advertisement - Login to hide

Runways

ID Width Length Bearing (true) Bearing (mag) Surface Threshold Offset Overrun Length
08 197 ft / 60 m 9,837 ft / 2,998 m 76.61° 77.21° Asphalt 0 ft / 0 m 390 ft / 119 m
26 197 ft / 60 m 9,837 ft / 2,998 m 256.61° 257.21° Asphalt 0 ft / 0 m 390 ft / 119 m

Approach Navaids

Runway Type Ident Frequency Range Bearing (true) Bearing (mag) Slope Elevation
08 Localiser ISK 109.50 MHz 18 nm / 33 km 76.62° 77.22° - 1,024 ft / 312 m (AMSL)
08 Glidescope ISK 109.50 MHz 10 nm / 19 km 76.61° 77.21° 3.00° 1,047 ft / 319 m (AMSL)
08 DME ISK 109.50 MHz 18 nm / 33 km - - - 1,010 ft / 308 m (AMSL)

Map

Weather


0- 5 10 15 20 25 30 35+ Temperature / ° C

Clouds and Precipitation
Forecast for 2018-05-21 18:00 UTC. Updated 6 minutes ago

Ground ~20,000 ft ~40,000 ft Winds

METAR

Not found

TAF

TAF TAF DNSO 210940Z 2112/2218 28017KT CAVOK TEMPO 2112/2118 TS BKN014 FEW020CB TEMPO 2118/2200 06015G40KT 5000 -TSRA

Frequencies

Tower 122.10 MHz SOKOTO TWR
Tower 124.50 MHz SOKOTO TWR
Warning: Do not use this data for real-world aviation or navigation. No guarantee of current accuracy is given.